#timestamp,LO_Frequency,Hit 
1505883615.4,286047005.3,N
1505883635.2,286047000.1,N
1505883655.0,286047000.8,N
1505883655.9,286047000.8,N
1505883675.8,286046995.0,N
1505883695.6,286046995.8,N
1505883715.4,286046998.5,N
1505883735.3,286047003.9,N
1505883755.1,286047001.7,N
1505883775.8,286047002.6,N
1505883795.7,286047003.6,N
1505883815.5,286047003.4,N
1505883835.3,286047007.3,N
1505883855.2,286047010.7,P
1505883875.9,286047006.8,N
1505883895.7,286047001.4,N
1505883915.6,286047002.2,N
1505883935.4,286047001.2,N
1505883955.2,286046998.5,N
1505883975.1,286047000.5,N
1505883976.0,286047000.5,N
1505883995.8,286047001.5,N
1505884015.6,286047002.8,N
1505884035.5,286047000.4,N
1505884055.3,286047002.4,N
1505884075.1,286047006.0,N
1505884095.8,286047003.6,N
1505884115.7,286047006.0,N
1505884135.5,286047004.0,N
1505884155.3,286047000.1,N
1505884175.2,286047004.4,N
1505884195.9,286047004.5,N
1505884215.7,286047003.9,N
1505884235.6,286046998.2,N
1505884255.4,286046998.3,N
1505884275.2,286047000.2,N
1505884295.1,286047001.9,N
1505884296.0,286047001.9,N
1505884315.8,286047001.0,N
1505884335.6,286046999.5,N
1505884355.4,286046998.4,N
1505884375.3,286047000.7,N
1505884395.1,286046999.0,N
1505884415.8,286046999.6,N
1505884435.7,286046999.0,N
1505884455.5,286046998.1,N
1505884475.3,286047002.1,N
1505884495.2,286047001.9,N
1505884515.9,286047002.9,N
1505884535.7,286047004.3,N
1505884555.6,286047005.6,N
1505884575.4,286047003.3,N
1505884595.2,286047002.9,N
1505884615.1,286046998.2,N
1505884616.0,286046998.2,N
1505884635.8,286046998.0,N
1505884655.6,286046997.7,N
1505884675.5,286046998.7,N
1505884695.3,286046997.3,N
1505884715.1,286046997.5,N
1505884735.8,286047000.5,N
1505884755.7,286047003.6,N
1505884775.5,286047006.4,N
1505884795.4,286047013.0,P
1505884815.2,286047015.1,N
1505884835.0,286047013.0,N
1505884835.9,286047013.0,N
1505884855.7,286047013.8,N
1505884875.6,286047012.9,N
1505884895.4,286047015.4,P
1505884915.3,286046996.6,N
1505884935.1,286046999.1,N
1505884936.0,286046999.1,N
1505884955.8,286046995.1,N
1505884975.7,286046990.9,N
1505884995.5,286046992.2,N
1505885015.3,286046993.1,N
1505885035.1,286046993.1,N
1505885055.9,286046994.4,N
1505885075.7,286046993.2,N
1505885095.5,286046993.0,N
1505885115.4,286046991.6,N
1505885135.2,286046991.6,N
1505885155.0,286046989.4,N
1505885155.9,286046989.4,N
1505885175.8,286046985.3,N
1505885195.6,286046989.7,N
1505885215.4,286046990.3,N
1505885235.3,286046991.4,N
1505885255.1,286046991.3,N
1505885256.0,286046991.3,N
1505885275.8,286046992.4,N
1505885295.7,286046993.5,N
1505885315.5,286046996.8,N
1505885335.3,286047001.6,N
1505885355.1,286047002.8,N
1505885375.9,286047000.4,N
1505885395.7,286047000.4,N
1505885415.5,286046997.4,N
1505885435.4,286046995.6,N
1505885455.2,286046995.3,N
1505885475.0,286046997.3,N
1505885475.9,286046997.3,N
1505885495.8,286046996.8,N
1505885515.6,286046998.2,N
1505885535.4,286046997.6,N
1505885555.3,286046994.8,N
1505885575.1,286046993.0,N
1505885576.0,286046993.0,N
1505885595.8,286046991.3,N
1505885615.7,286046992.8,N
1505885635.5,286046993.1,N
1505885655.3,286046989.6,N
1505885675.2,286046989.6,N
1505885695.9,286046992.9,N
1505885715.7,286046992.6,N
1505885735.5,286046997.8,N
1505885755.4,286046999.6,N
1505885775.2,286047001.1,N
1505885795.0,286047000.3,N
1505885795.9,286047000.3,N
1505885815.8,286046998.2,N
1505885835.6,286046994.9,N
1505885855.4,286046994.1,N
1505885875.3,286046996.0,N
1505885895.1,286046995.6,N
1505885896.0,286046995.6,N
1505885915.8,286046991.8,N
1505885935.7,286046992.9,N
1505885955.5,286046990.3,P
1505885975.3,286046997.7,N
1505885995.2,286046996.8,N
1505886015.9,286046998.2,N
1505886035.7,286046999.9,N
1505886055.6,286047001.7,N
1505886075.4,286047000.7,N
1505886095.2,286046998.9,N
1505886115.1,286046997.0,N
1505886116.0,286046997.0,N
1505886135.8,286046997.9,N
1505886155.6,286046996.8,N
1505886175.4,286046995.7,N
1505886195.3,286046993.5,N
1505886215.1,286046997.9,N
1505886235.8,286046997.9,N
1505886255.7,286046996.6,N
1505886275.5,286046998.7,N
1505886295.3,286046995.5,N
1505886315.2,286046997.1,N
1505886335.9,286046999.1,N
1505886355.7,286046997.7,N
1505886375.6,286046999.0,N
1505886395.4,286046999.1,N
1505886415.2,286046996.5,N
1505886435.1,286046997.7,N
1505886436.0,286046997.7,N
1505886455.8,286046999.5,N
1505886475.6,286046998.6,N
1505886495.4,286047005.6,N
1505886515.3,286047004.0,N
1505886535.1,286047000.6,N
1505886555.8,286046999.6,N
1505886575.7,286047001.4,N
1505886595.5,286047009.1,P
1505886615.3,286047009.6,N
1505886635.2,286047008.2,N
1505886655.0,286047007.5,N
1505886655.9,286047007.5,N
1505886675.7,286047007.8,N
1505886695.6,286047011.9,P
1505886715.4,286047004.5,N
1505886735.2,286047000.0,N
1505886755.1,286046998.4,N
1505886756.0,286046998.4,N
1505886775.8,286046999.3,N
1505886795.6,286047001.5,N
1505886815.5,286047000.4,N
1505886835.3,286046996.5,N
1505886855.1,286047000.8,N
1505886875.9,286046998.1,N
1505886895.7,286046997.0,N
1505886915.5,286046997.0,N
1505886935.4,286046995.3,N
1505886955.2,286046993.4,N
1505886975.0,286046998.3,N
1505886975.9,286046998.3,N
1505886995.8,286046998.9,N
1505887015.6,286046998.4,N
1505887035.4,286046997.2,N
1505887055.2,286046997.9,N
1505887075.1,286046999.8,N
1505887076.0,286046999.8,N
1505887095.8,286046999.3,N
1505887115.6,286046997.2,N
1505887135.5,286046999.2,N
1505887155.3,286046997.4,N
1505887175.1,286046998.8,N
1505887195.9,286046998.2,N
